This demonstration page uses our WeatherBlox Daily Observations layout. Learn more.

Left ArrowRight Arrow

Hourly Observations for January 4, 2018

Temp ( °F °C ) Dew Point ( °F °C ) Humidity (%) Winds ( mph kmh ) Pressure ( in mb ) Visibility ( mi km ) Precip ( " mm )
12:56 am 00:56 Clear 13 -10.6 11 -11.7 92 92 WSW 3 6 30.36 1028 10 16 0.00 0.00
1:56 am 01:56 Clear 11 -11.7 8 -13.3 88 88 Calm 30.35 1028 10 16 0.00 0.00
2:56 am 02:56 Clear 10 -12.2 8 -13.3 92 92 SSW 5 7 30.37 1028 10 16 0.00 0.00
3:56 am 03:56 Mostly Cloudy 10 -12.2 8 -13.3 92 92 SW 6 9 30.35 1028 10 16 0.00 0.00
4:56 am 04:56 Partly Cloudy 12 -11.1 9 -12.8 87 87 SSW 3 6 30.34 1027 10 16 0.00 0.00
5:56 am 05:56 Mostly Clear 8 -13.3 6 -14.4 92 92 SSW 7 11 30.34 1028 10 16 0.00 0.00
7:56 am 07:56 Clear 13 -10.6 11 -11.7 92 92 SSW 9 15 30.34 1027 10 16 0.00 0.00
8:56 am 08:56 Sunny 15 -9.4 12 -11.1 88 88 SSW 12 19 30.33 1027 10 16 0.00 0.00
9:56 am 09:56 Sunny 20 -6.7 15 -9.4 81 81 SSW 12 19 30.33 1027 10 16 0.00 0.00
10:56 am 10:56 Sunny 27 -2.8 19 -7.2 72 72 SW 12 19 30.32 1027 10 16 0.00 0.00
12:56 pm 12:56 Sunny 35 1.7 22 -5.6 59 59 WSW 14 22 30.24 1024 10 16 0.00 0.00
1:56 pm 13:56 Sunny 35 1.7 23 -5 61 61 WSW 10 17 30.22 1024 10 16 0.00 0.00
2:56 pm 14:56 Sunny 36 2.2 23 -5 59 59 WSW 8 13 30.21 1023 10 16 0.00 0.00
3:56 pm 15:56 Sunny 37 2.8 25 -3.9 62 62 W 10 17 30.22 1023 10 16 0.00 0.00
4:56 pm 16:56 Sunny 35 1.7 24 -4.4 64 64 W 7 11 30.22 1023 10 16 0.00 0.00
5:56 pm 17:56 Clear 31 -0.6 24 -4.4 76 76 W 5 7 30.24 1024 10 16 0.00 0.00
6:56 pm 18:56 Clear 28 -2.2 23 -5 81 81 NW 6 9 30.26 1025 10 16 0.00 0.00
7:56 pm 19:56 Clear 25 -3.9 21 -6.1 85 85 NW 8 13 30.27 1025 10 16 0.00 0.00
8:56 pm 20:56 Clear 22 -5.6 20 -6.7 92 92 WNW 6 9 30.27 1025 10 16 0.00 0.00
9:56 pm 21:56 Clear 22 -5.6 20 -6.7 92 92 NW 7 11 30.27 1025 10 16 0.00 0.00
10:56 pm 22:56 Clear 19 -7.2 17 -8.3 92 92 WNW 5 7 30.27 1025 9 14 0.00 0.00
11:56 pm 23:56 Clear 19 -7.2 17 -8.3 92 92 NNW 7 11 30.30 1026 7 11 0.00 0.00

Powered by AerisWeather